This demonstration page uses our WeatherBlox Daily Observations layout. Learn more.

Left ArrowRight Arrow

44.8408, -93.29828

Hourly Observations for July 2, 2016

Temp ( °F °C ) Dew Point ( °F °C ) Humidity (%) Winds ( mph kmh ) Pressure ( in mb ) Visibility ( mi km ) Precip ( " mm )
12:53 am 00:53 Mostly Cloudy 63 17.2 51 10.6 65 65 SSE 5 7 30.14 1021 10 16 0.00 0.00
1:53 am 01:53 Mostly Cloudy 63 17.2 51 10.6 65 65 SE 5 7 30.12 1020 10 16 0.00 0.00
2:53 am 02:53 Mostly Cloudy 62 16.7 51 10.6 67 67 SSE 3 6 30.11 1020 10 16 0.00 0.00
3:53 am 03:53 Mostly Cloudy 61 16.1 51 10.6 70 70 ESE 3 6 30.11 1020 10 16 0.00 0.00
4:53 am 04:53 Mostly Cloudy 61 16.1 51 10.6 70 70 ESE 3 6 30.11 1020 10 16 0.00 0.00
5:53 am 05:53 Mostly Cloudy 61 16.1 51 10.6 70 70 SE 5 7 30.11 1020 10 16 0.00 0.00
6:53 am 06:53 Mostly Cloudy 61 16.1 51 10.6 70 70 SE 6 9 30.13 1020 10 16 0.00 0.00
7:53 am 07:53 Mostly Cloudy 64 17.8 53 11.7 68 68 SE 5 7 30.14 1021 10 16 0.00 0.00
8:53 am 08:53 Mostly Sunny 67 19.4 53 11.7 61 61 VRB 3 6 30.13 1020 10 16 0.00 0.00
9:53 am 09:53 Mostly Sunny 72 22.2 54 12.2 53 53 S 6 9 30.12 1020 10 16 0.00 0.00
10:53 am 10:53 Partly Cloudy 74 23.3 52 11.1 46 46 SE 7 11 30.11 1020 10 16 0.00 0.00
11:53 am 11:53 Partly Cloudy 75 23.9 51 10.6 43 43 SSW 7 11 30.10 1019 10 16 0.00 0.00
12:53 pm 12:53 Mostly Cloudy 76 24.4 51 10.6 42 42 VRB 6 9 30.10 1019 10 16 0.00 0.00
1:53 pm 13:53 Partly Cloudy 75 23.9 50 10 41 41 S 7 11 30.09 1019 10 16 0.00 0.00
2:53 pm 14:53 Partly Cloudy 77 25 50 10 39 39 VRB 3 6 30.08 1019 10 16 0.00 0.00
3:53 pm 15:53 Partly Cloudy 77 25 49 9.4 37 37 SSE 9 15 30.07 1018 10 16 0.00 0.00
4:53 pm 16:53 Mostly Cloudy 78 25.6 49 9.4 36 36 SSE 8 13 30.06 1018 10 16 0.00 0.00
5:53 pm 17:53 Partly Cloudy 78 25.6 49 9.4 36 36 SE 7 11 30.05 1018 10 16 0.00 0.00
6:53 pm 18:53 Partly Cloudy 78 25.6 48 8.9 35 35 SSE 7 11 30.05 1018 10 16 0.00 0.00
7:53 pm 19:53 Partly Cloudy 77 25 48 8.9 36 36 SE 8 13 30.04 1017 10 16 0.00 0.00
8:53 pm 20:53 Mostly Sunny 74 23.3 49 9.4 41 41 SSE 7 11 30.04 1017 10 16 0.00 0.00
9:53 pm 21:53 Mostly Clear 72 22.2 52 11.1 50 50 SE 7 11 30.04 1017 10 16 0.00 0.00
10:53 pm 22:53 Mostly Clear 70 21.1 54 12.2 57 57 SE 6 9 30.05 1018 10 16 0.00 0.00
11:53 pm 23:53 Clear 70 21.1 54 12.2 57 57 S 5 7 30.05 1018 10 16 0.00 0.00

Powered by AerisWeather